User: anonymous   Login
Location: Unspecified
(0.0000°N, 0.0000°E)
Time: 09:00:59
(UTC+00:00)
Language:

STARLINK-35494 - Orbit

View from above orbital plane
View from above orbital plane
View from above satellite
View from above satellite

Ground track
Ground track

The orbit is defined by the following mean orbital elements,

1 65927U          26145.47892932 +.00000000 +00000-0 +69034-3 0 00009
2 65927  53.1591 169.0911 0001118  79.4511 280.6617 15.34394411    05
Epoch (UTC): 25 May 2026 11:29:39
Eccentricity: 0.0001118
inclination: 53.1591°
perigee height: 462 km
apogee height: 463 km
right ascension of ascending node: 169.0911°
argument of perigee: 79.4511°
revolutions per day: 15.34394411
mean anomaly at epoch: 280.6617°

The dashed part of the orbit path shows where the satellite is in the earth's shadow,  

DLR